sat.trackr.live / text

‹ back to catalog

STARLINK-35365

NORAD 66186 · 2025-243K

PAYLOAD ACTIVE UNKNOWN

§ Identity

Operator
Country
US
Launch date
2025-10-26
Launch site
AFETR
Launch vehicle
Mass (kg)
RCS (m²)

Purposes: comms

External: N2YO · Heavens-Above · Gunter

§ Orbital elements

Epoch: 2026-05-24T16:00:39.556800Z

Period
94.11 min
Inclination
53.1570°
Eccentricity
0.0001107
Mean motion
15.30197610 rev/d
Perigee alt
474.5 km
Apogee alt
476.0 km
Semi-major
6,853.4 km
B*
5.1803e-4
RAAN
252.5352°
Arg perigee
76.7032°
Mean anomaly
283.4092°
Rev number
3,228

§ Raw data

STARLINK-353651 66186U 25243K   26144.66712450  .00015013  00000+0  51803-3 0  99902 66186  53.1570 252.5352 0001107  76.7032 283.4092 15.30197610 32284

JSON: /api/v1/satellites/66186 · /tle

For live sub-satellite position, see the globe view (requires WebGL).

§ Visibility from observer

Set your observer location to see the next 7 days of passes ≥ 10°. The values pass through the URL so the page stays shareable.

No JS? Fill the form by hand. The geolocation button needs JavaScript.